Dewpoint
58 56 56 52 46 45 38 39 45 45 44 49 50 45 45 45 44 41 62 63 61 67 69 69 71 71 71 71 71 71 71 71 69 67 66 64 63 62 62 62 62 62 62 62 61 60 60 60 58
55 55 51 49 34 29 27 41 41 45 45 49 50 53 46 44 56 60 61 63 62 69 69 68 71 71 69 70 71 71 70 69 67 65 64 63 62 62 61 62 61 61 61 60 60 59 59 58 59
55 54 44 45 40 22 22 39 43 37 38 49 49 56 54 50 59 60 63 64 64 69 69 69 71 71 71 72 72 71 69 67 65 64 63 62 62 61 61 61 61 61 60 59 58 58 58 60 58
53 51 47 41 35 39 41 38 37 33 35 50 53 49 56 60 60 62 65 65 66 68 70 71 71 72 72 72 71 69 67 65 64 63 62 62 61 61 61 61 60 60 58 58 58 59 59 59 58
51 46 39 37 36 38 36 36 33 31 35 38 47 45 54 60 63 64 65 66 66 69 70 70 71 72 72 72 70 68 66 64 63 63 62 61 61 61 60 60 60 58 58 58 59 59 58 59 58
46 43 36 32 34 36 36 36 32 36 38 42 48 51 55 62 63 65 65 66 67 68 70 69 70 71 71 71 69 67 65 63 63 62 62 61 61 61 60 59 58 58 58 58 58 58 58 58 57
43 40 35 33 33 34 34 34 35 36 39 40 51 47 56 60 63 65 66 66 67 68 70 70 70 70 69 69 68 67 65 63 62 62 61 61 60 59 58 58 58 58 57 57 57 57 58 58 57
44 41 37 36 34 34 36 35 38 38 36 47 54 49 50 60 65 65 65 65 67 68 69 69 69 68 67 66 66 65 64 63 63 62 62 61 61 60 59 60 58 57 56 56 57 58 58 57 57
45 39 35 35 35 35 36 35 38 39 38 44 43 55 59 62 64 64 64 64 65 67 67 67 66 65 65 64 63 64 63 63 63 60 60 57 55 55 55 58 59 58 56 57 58 58 58 58 57
43 38 35 37 37 37 36 38 38 37 37 37 43 55 61 63 63 62 62 62 62 64 65 65 64 63 63 61 61 60 59 59 58 54 53 51 51 51 54 57 60 58 59 58 57 59 58 53 50
41 38 38 38 38 38 38 38 38 36 37 40 40 46 55 61 60 58 61 61 62 63 64 63 62 61 60 59 57 57 56 55 53 49 48 48 50 50 49 49 48 49 50 50 50 50 49 49 49
40 40 40 40 40 39 38 38 37 37 38 40 41 44 51 57 57 58 61 61 62 63 63 62 60 59 58 57 55 54 53 51 49 47 47 48 48 47 46 46 47 47 47 47 47 47 48 49 49
40 40 40 40 41 40 40 40 39 37 39 39 40 51 56 58 58 59 60 62 62 61 61 60 58 58 56 54 52 51 49 48 48 46 46 47 47 46 46 45 46 46 47 47 47 47 47 48 49
40 39 40 40 40 40 39 38 39 37 39 38 39 53 53 57 57 59 58 57 62 61 60 58 57 55 53 50 49 47 47 45 46 44 45 47 46 46 46 45 45 46 47 47 47 47 47 48 48
42 40 38 37 37 36 38 34 35 37 36 36 37 48 49 54 58 57 58 57 59 61 60 58 55 52 50 47 47 46 45 44 44 44 44 45 46 46 46 45 46 46 46 47 47 47 47 47 48
36 35 32 32 34 34 35 31 35 35 33 35 37 38 49 54 58 59 61 60 62 62 59 58 56 51 47 46 47 45 45 44 44 44 45 45 46 47 46 46 45 46 47 48 48 47 47 47 48
30 29 30 31 34 33 34 32 35 35 34 34 36 40 43 51 57 59 62 63 62 61 60 58 55 51 47 46 46 46 46 45 45 45 45 46 46 46 46 46 46 45 46 47 47 47 47 47 47
26 30 30 31 33 34 34 33 34 35 34 35 36 37 38 44 55 59 62 62 62 61 60 59 56 51 47 47 46 46 46 45 45 45 45 46 46 46 47 46 45 45 46 46 46 46 46 47 47
33 32 31 32 34 34 33 32 32 33 34 34 37 38 38 41 52 59 61 62 61 60 60 59 56 52 48 47 45 44 44 45 45 46 46 47 46 46 46 46 45 45 45 44 44 45 46 46 47
33 32 31 32 33 33 32 31 31 32 33 34 35 36 37 39 52 58 59 60 60 59 58 58 55 52 49 46 45 45 45 45 45 47 46 47 47 47 46 46 46 45 44 44 44 44 44 45 47
32 31 31 31 32 32 29 27 27 28 32 34 36 36 36 36 49 56 58 58 59 58 58 56 55 53 50 49 47 47 47 47 45 45 46 46 47 48 47 47 47 46 45 45 45 45 45 44 45
30 32 33 32 29 27 29 24 27 27 28 30 31 34 37 40 51 54 56 57 58 58 58 57 56 54 53 51 48 46 44 44 45 45 46 46 46 47 48 47 47 47 47 46 46 45 45 45 44
31 33 31 30 28 28 26 26 26 26 26 27 28 32 33 37 49 54 56 56 57 57 56 56 56 56 54 51 49 49 47 47 45 45 45 45 46 47 47 47 47 47 47 47 47 46 45 44 44
33 31 26 27 29 23 24 25 26 23 23 26 27 29 31 32 45 53 55 56 56 57 56 56 56 56 54 51 50 50 47 47 45 44 45 45 46 47 47 47 47 47 47 47 47 47 46 45 45
33 27 18 15 21 20 20 25 25 26 27 28 28 30 31 32 38 50 54 55 56 55 55 55 54 55 55 53 50 50 50 49 45 45 43 44 45 46 47 46 47 46 47 47 47 47 47 47 46
31 27 19 11 14 16 24 22 24 28 29 30 30 29 31 32 37 46 53 54 53 54 55 54 54 54 55 53 51 50 49 49 48 47 46 44 44 45 46 46 45 46 46 46 47 48 47 47 47
30 28 28 24 23 23 22 22 23 25 27 28 28 29 30 30 32 40 50 55 54 55 56 56 54 54 54 52 51 50 50 50 50 49 47 45 45 45 46 46 45 45 46 46 47 47 47 47 47
30 30 26 26 17 16 18 20 23 24 25 26 27 29 29 30 31 33 43 53 56 56 58 57 56 54 54 53 52 51 50 51 51 49 47 46 46 46 46 46 45 45 45 45 46 46 46 46 46
30 29 27 26 21 17 13 19 26 26 26 26 27 29 29 30 30 33 35 45 55 57 57 57 57 56 56 55 53 53 53 53 52 50 48 47 47 46 45 45 45 44 44 45 45 45 45 45 45
30 28 27 22 19 23 18 20 26 27 27 28 28 28 29 30 30 32 34 39 47 55 56 56 56 56 56 56 55 55 54 55 52 50 48 48 48 46 45 45 44 44 43 44 44 44 44 45 45
Lifted_Index
8 8 8 8 7 6 6 6 6 5 3 1 1 1 1 1 1 1 1 1 0 -1 -2 -2 -2 -2 -1 -1 -1 -2 -1 -1 1 2 3 4 5 5 6 6 6 6 6 6 6 7 7 7 7
8 8 8 8 7 7 7 7 7 5 2 1 0 -0 0 1 1 1 1 1 -0 -2 -2 -2 -2 -2 -1 -1 -2 -2 -1 0 2 3 4 5 5 6 6 6 6 6 6 7 7 7 7 7 7
8 8 8 8 8 8 8 8 7 5 2 0 -1 -1 -1 -0 0 -0 -0 -0 -1 -2 -3 -2 -2 -2 -2 -2 -2 -1 0 1 3 4 5 5 6 6 6 6 6 7 7 7 8 8 7 7 7
7 8 8 8 8 9 9 8 6 4 1 -1 -1 -2 -2 -1 -1 -1 -1 -1 -2 -3 -3 -3 -3 -3 -3 -3 -2 -0 1 3 4 5 5 6 6 6 7 7 7 7 8 8 8 8 7 7 7
7 8 8 8 8 9 8 6 4 2 1 -1 -2 -2 -3 -3 -2 -2 -2 -2 -3 -3 -3 -3 -3 -3 -3 -2 -1 0 2 3 4 5 6 6 6 7 7 7 8 8 8 8 8 7 7 8 8
8 8 7 7 8 8 7 5 3 2 1 -1 -2 -3 -3 -3 -3 -3 -3 -3 -3 -3 -3 -3 -3 -3 -2 -2 -1 1 3 4 5 5 6 6 7 7 7 8 8 8 8 8 8 8 8 8 8
8 8 8 8 8 7 6 4 3 3 2 -1 -3 -3 -3 -3 -4 -3 -3 -3 -3 -3 -3 -3 -3 -2 -2 -1 0 2 3 4 5 6 6 7 7 8 8 8 8 8 8 8 8 8 8 8 9
8 8 8 8 8 6 5 4 3 3 2 -0 -2 -2 -2 -3 -4 -4 -3 -3 -3 -3 -3 -3 -2 -2 -1 0 1 2 3 4 5 6 7 7 8 8 8 8 8 9 9 9 8 8 8 9 9
7 8 8 8 8 6 4 4 3 3 2 1 -1 -2 -3 -3 -3 -3 -3 -2 -2 -2 -2 -2 -2 -1 -0 1 2 4 4 5 6 7 8 9 9 9 9 9 9 9 9 9 8 8 9 9 10
7 7 8 8 7 5 4 3 3 3 3 2 0 -2 -3 -3 -2 -2 -2 -2 -2 -2 -2 -2 -1 -1 0 2 4 5 6 7 8 9 10 11 11 11 11 10 9 9 9 9 9 9 10 11 11
7 7 7 7 7 5 3 3 3 3 2 2 1 0 -1 -2 -1 -1 -1 -2 -2 -1 -1 -1 -1 -0 1 2 4 7 8 9 10 12 12 12 12 12 12 12 11 11 11 11 11 11 11 12 12
7 7 7 7 6 5 3 3 3 3 2 2 2 2 0 -1 -0 0 -0 -1 -2 -1 -1 -1 -1 -0 1 3 5 8 10 11 12 13 13 13 13 13 13 13 13 13 12 12 12 12 12 12 12
7 6 6 6 6 5 4 3 3 3 2 2 2 2 0 -0 -0 0 1 0 -1 -1 -1 -1 -1 -0 1 3 6 9 11 12 13 13 13 13 13 13 13 13 13 13 13 12 12 12 12 11 11
7 7 6 7 6 6 4 4 3 3 3 3 3 1 1 -0 -0 -0 1 1 0 -1 -1 -1 -1 -0 1 3 6 9 11 12 13 13 13 13 13 13 14 14 13 13 13 12 12 12 12 11 11
7 7 6 7 7 6 5 4 3 4 4 4 3 3 2 0 -1 -0 1 2 1 -0 -1 -1 -1 -0 1 3 6 9 12 13 13 13 13 13 13 14 14 14 14 13 13 13 12 12 12 12 11
6 6 6 6 7 6 5 4 4 4 4 5 4 4 3 1 -1 -1 -0 1 1 0 -0 -1 -1 -0 1 2 5 9 11 13 13 13 13 13 13 14 14 14 14 14 13 13 13 12 12 12 12
5 5 5 6 7 7 6 5 4 5 5 5 5 5 4 2 -1 -2 -2 -1 -0 0 0 -0 -1 -0 1 2 5 8 11 12 12 13 13 13 13 13 14 14 14 14 14 13 13 13 12 12 12
4 4 5 6 7 7 7 6 5 5 5 5 5 5 5 4 1 -2 -3 -2 -1 -0 0 -0 -1 -0 0 2 4 6 9 11 12 12 13 13 13 13 14 14 14 14 14 14 13 13 13 13 13
5 4 5 6 7 7 6 6 6 6 6 6 6 6 6 5 2 -1 -3 -3 -2 -1 -0 -1 -1 -0 0 1 2 3 6 9 11 12 13 13 13 13 14 14 14 14 15 14 14 13 13 13 13
5 5 5 6 7 7 6 5 6 7 7 6 7 6 6 5 2 -0 -2 -2 -3 -2 -2 -2 -1 -1 -0 0 0 1 4 8 11 12 13 13 13 13 13 14 14 14 15 15 15 14 14 13 13
5 5 5 5 6 6 5 4 5 7 7 6 6 6 6 5 3 0 -1 -1 -2 -2 -2 -2 -1 -1 -1 -0 0 1 3 6 9 11 12 12 12 13 13 14 14 14 14 15 15 15 14 14 13
6 6 6 5 5 5 4 3 4 5 6 6 6 6 6 5 3 0 -1 -1 -1 -1 -1 -1 -1 -1 -1 -0 -0 0 1 3 5 8 10 11 11 12 12 13 13 13 14 14 14 15 14 14 14
7 7 7 6 5 4 3 3 3 4 5 5 5 5 5 4 3 1 -0 -0 -0 -0 -0 0 0 0 0 0 0 0 0 1 3 5 7 8 9 10 10 11 12 12 13 13 14 14 14 14 14
7 7 6 5 4 3 3 3 3 4 5 5 5 4 4 4 3 1 -0 -0 -0 0 1 1 2 2 2 1 0 0 0 1 1 3 4 5 6 7 8 8 8 10 11 12 13 14 14 14 15
7 6 4 3 2 2 3 3 3 4 5 5 5 4 4 3 3 2 0 -0 -0 0 1 2 3 3 3 2 1 0 -0 0 1 1 2 3 4 5 5 5 5 6 8 10 12 14 14 14 14
6 5 4 2 2 3 3 3 3 4 4 4 4 4 3 3 3 2 1 -0 0 1 1 2 2 3 4 3 1 0 -0 -0 0 1 1 1 2 3 4 4 4 4 6 9 11 13 13 14 14
6 6 5 4 3 3 3 3 3 4 4 4 4 4 3 3 3 3 1 0 0 1 1 1 2 3 4 3 2 1 0 -0 -0 -0 0 1 1 2 3 3 3 4 5 7 10 12 13 13 13
6 6 5 5 3 2 2 3 3 4 4 4 4 4 4 3 3 3 3 1 0 0 1 1 2 3 4 3 2 1 1 -0 -1 -1 -0 0 0 1 2 3 3 3 3 5 8 11 12 13 13
6 6 6 5 4 3 2 3 4 4 4 4 4 4 4 4 4 4 4 3 1 -0 0 1 2 2 3 3 2 2 1 -0 -1 -0 -0 -0 0 1 2 2 2 2 2 3 6 9 12 12 13
5 6 5 5 4 4 3 4 4 4 4 3 4 4 4 4 5 5 5 4 2 0 -0 0 1 2 2 2 2 2 1 1 0 0 0 0 0 0 1 2 2 1 1 1 4 8 11 12 13